| time (UTC) | temp C | wind direction | speed KPH | gust KPH | rain 1hr cm | rain 24hr cm | rain mn cm | humidity % | barometer mb |
| 20260906214452 | 32 | 143 | 1.6 | 4.8 | 0.00 | 0.00 | 0.00 | 33 | 1016.3 |
| 20260906213950 | 32 | 119 | 3.2 | 3.2 | 0.00 | 0.00 | 0.00 | 33 | 1016.4 |
| 20260906213450 | 32 | 122 | 1.6 | 3.2 | 0.00 | 0.00 | 0.00 | 34 | 1016.4 |
| 20260906212949 | 32 | 151 | 3.2 | 6.4 | 0.00 | 0.00 | 0.00 | 34 | 1016.5 |
| 20260906212446 | 32 | 97 | 0.0 | 1.6 | 0.00 | 0.00 | 0.00 | 34 | 1016.6 |
| 20260906211946 | 32 | 150 | 3.2 | 3.2 | 0.00 | 0.00 | 0.00 | 33 | 1016.8 |
| 20260906211439 | 32 | 155 | 1.6 | 3.2 | 0.00 | 0.00 | 0.00 | 33 | 1016.8 |
| 20260906210938 | 31 | 239 | 1.6 | 1.6 | 0.00 | 0.00 | 0.00 | 34 | 1016.8 |
| 20260906210437 | 31 | 41 | 1.6 | 1.6 | 0.00 | 0.00 | 0.00 | 33 | 1016.9 |
| 20260906205936 | 31 | 73 | 3.2 | 4.8 | 0.00 | 0.00 | 0.00 | 33 | 1017.0 |
| 20260906205431 | 31 | 86 | 1.6 | 3.2 | 0.00 | 0.00 | 0.00 | 31 | 1017.0 |
| 20260906204930 | 31 | 99 | 3.2 | 4.8 | 0.00 | 0.00 | 0.00 | 32 | 1017.0 |
| 20260906204429 | 31 | 75 | 1.6 | 3.2 | 0.00 | 0.00 | 0.00 | 32 | 1017.2 |
| 20260906203928 | 31 | 74 | 1.6 | 3.2 | 0.00 | 0.00 | 0.00 | 32 | 1017.2 |
| 20260906203427 | 31 | 111 | 3.2 | 4.8 | 0.00 | 0.00 | 0.00 | 33 | 1017.4 |
| 20260906202926 | 31 | 124 | 0.0 | 1.6 | 0.00 | 0.00 | 0.00 | 32 | 1017.2 |
| 20260906202425 | 31 | 140 | 1.6 | 3.2 | 0.00 | 0.00 | 0.00 | 32 | 1017.4 |
| 20260906201925 | 31 | 83 | 3.2 | 4.8 | 0.00 | 0.00 | 0.00 | 32 | 1017.5 |
| 20260906201424 | 31 | 191 | 1.6 | 4.8 | 0.00 | 0.00 | 0.00 | 35 | 1017.5 |
| 20260906200923 | 31 | 204 | 1.6 | 1.6 | 0.00 | 0.00 | 0.00 | 35 | 1017.6 |
| 20260906200422 | 30 | 213 | 1.6 | 1.6 | 0.00 | 0.00 | 0.00 | 35 | 1017.6 |
| 20260906195921 | 30 | 120 | 1.6 | 1.6 | 0.00 | 0.00 | 0.00 | 36 | 1017.7 |
| 20260906195421 | 30 | 122 | 1.6 | 3.2 | 0.00 | 0.00 | 0.00 | 36 | 1017.8 |
| 20260906194920 | 30 | 49 | 1.6 | 3.2 | 0.00 | 0.00 | 0.00 | 36 | 1017.8 |
| 20260906194419 | 30 | 51 | 1.6 | 1.6 | 0.00 | 0.00 | 0.00 | 37 | 1017.9 |
| 20260906193919 | 29 | 77 | 0.0 | 1.6 | 0.00 | 0.00 | 0.00 | 37 | 1018.1 |
| 20260906193418 | 30 | 69 | 1.6 | 4.8 | 0.00 | 0.00 | 0.00 | 37 | 1018.1 |
| 20260906192917 | 30 | 64 | 1.6 | 3.2 | 0.00 | 0.00 | 0.00 | 37 | 1018.2 |
| 20260906192415 | 30 | 54 | 0.0 | 3.2 | 0.00 | 0.00 | 0.00 | 38 | 1018.2 |
| 20260906191915 | 30 | 155 | 1.6 | 1.6 | 0.00 | 0.00 | 0.00 | 36 | 1018.3 |
| 20260906191414 | 30 | 117 | 1.6 | 3.2 | 0.00 | 0.00 | 0.00 | 37 | 1018.4 |
| 20260906190913 | 29 | 100 | 1.6 | 1.6 | 0.00 | 0.00 | 0.00 | 37 | 1018.4 |
| 20260906190412 | 29 | 72 | 1.6 | 3.2 | 0.00 | 0.00 | 0.00 | 38 | 1018.5 |
| 20260906185912 | 29 | 71 | 0.0 | 1.6 | 0.00 | 0.00 | 0.00 | 40 | 1018.6 |
| 20260906185410 | 29 | 238 | 0.0 | 1.6 | 0.00 | 0.00 | 0.00 | 40 | 1018.8 |
| 20260906184910 | 28 | 159 | 0.0 | 1.6 | 0.00 | 0.00 | 0.00 | 40 | 1018.8 |
| 20260906184409 | 28 | 50 | 1.6 | 1.6 | 0.00 | 0.00 | 0.00 | 39 | 1018.9 |
| 20260906183908 | 28 | 55 | 0.0 | 1.6 | 0.00 | 0.00 | 0.00 | 43 | 1018.9 |
| 20260906183407 | 28 | 42 | 0.0 | 1.6 | 0.00 | 0.00 | 0.00 | 43 | 1019.0 |
| 20260906182907 | 27 | 113 | 0.0 | 1.6 | 0.00 | 0.00 | 0.00 | 43 | 1019.1 |
| 20260906182406 | 27 | 181 | 1.6 | 3.2 | 0.00 | 0.00 | 0.00 | 44 | 1019.2 |
| 20260906181905 | 27 | 130 | 1.6 | 3.2 | 0.00 | 0.00 | 0.00 | 46 | 1019.4 |
| 20260906181404 | 27 | 203 | 1.6 | 1.6 | 0.00 | 0.00 | 0.00 | 43 | 1019.5 |
| 20260906180904 | 27 | 229 | 1.6 | 1.6 | 0.00 | 0.00 | 0.00 | 44 | 1019.6 |
| 20260906180403 | 27 | 53 | 1.6 | 1.6 | 0.00 | 0.00 | 0.00 | 46 | 1019.7 |
| 20260906175902 | 27 | 46 | 1.6 | 1.6 | 0.00 | 0.00 | 0.00 | 48 | 1019.8 |
| 20260906175402 | 27 | 97 | 0.0 | 1.6 | 0.00 | 0.00 | 0.00 | 49 | 1019.8 |
| 20260906174901 | 27 | 51 | 0.0 | 3.2 | 0.00 | 0.00 | 0.00 | 49 | 1019.8 |
| 20260906174400 | 27 | 60 | 0.0 | 1.6 | 0.00 | 0.00 | 0.00 | 47 | 1019.9 |
| 20260906173859 | 26 | 275 | 0.0 | 0.0 | 0.00 | 0.00 | 0.00 | 51 | 1020.2 |
| 20260906173354 | 26 | 314 | 0.0 | 0.0 | 0.00 | 0.00 | 0.00 | 51 | 1020.2 |
| 20260906172853 | 26 | 37 | 1.6 | 1.6 | 0.00 | 0.00 | 0.00 | 51 | 1020.3 |
| 20260906172352 | 26 | 66 | 0.0 | 1.6 | 0.00 | 0.00 | 0.00 | 52 | 1020.3 |
| 20260906171851 | 26 | 9 | 0.0 | 0.0 | 0.00 | 0.00 | 0.00 | 52 | 1020.4 |
| 20260906171350 | 26 | 252 | 0.0 | 1.6 | 0.00 | 0.00 | 0.00 | 54 | 1020.5 |
| 20260906170849 | 26 | 206 | 0.0 | 0.0 | 0.00 | 0.00 | 0.00 | 54 | 1020.5 |
| 20260906170348 | 26 | 10 | 1.6 | 1.6 | 0.00 | 0.00 | 0.00 | 54 | 1020.7 |
| 20260906165847 | 25 | 69 | 0.0 | 1.6 | 0.00 | 0.00 | 0.00 | 54 | 1020.5 |
| 20260906165346 | 25 | 333 | 0.0 | 1.6 | 0.00 | 0.00 | 0.00 | 56 | 1020.7 |
| 20260906164846 | 25 | 263 | 0.0 | 1.6 | 0.00 | 0.00 | 0.00 | 56 | 1020.8 |
| 20260906164345 | 25 | 268 | 0.0 | 1.6 | 0.00 | 0.00 | 0.00 | 55 | 1020.8 |
| 20260906163844 | 24 | 0 | 0.0 | 0.0 | 0.00 | 0.00 | 0.00 | 58 | 833.4 |
| 20260906163343 | 24 | 54 | 0.0 | 0.0 | 0.00 | 0.00 | 0.00 | 59 | 1020.7 |
| 20260906162842 | 23 | 238 | 0.0 | 1.6 | 0.00 | 0.00 | 0.00 | 59 | 1020.8 |
| 20260906162342 | 24 | 48 | 1.6 | 3.2 | 0.00 | 0.00 | 0.00 | 57 | 1020.8 |
| 20260906161841 | 24 | 7 | 0.0 | 0.0 | 0.00 | 0.00 | 0.00 | 59 | 1020.8 |
| 20260906161340 | 23 | 290 | 0.0 | 1.6 | 0.00 | 0.00 | 0.00 | 61 | 1020.8 |
| 20260906160839 | 23 | 215 | 0.0 | 0.0 | 0.00 | 0.00 | 0.00 | 61 | 1020.8 |
| 20260906160338 | 23 | 37 | 1.6 | 3.2 | 0.00 | 0.00 | 0.00 | 59 | 1020.8 |
| 20260906155838 | 23 | 113 | 0.0 | 1.6 | 0.00 | 0.00 | 0.00 | 60 | 1020.8 |
| 20260906155337 | 23 | 50 | 0.0 | 1.6 | 0.00 | 0.00 | 0.00 | 60 | 1020.8 |
| 20260906154836 | 23 | 77 | 0.0 | 1.6 | 0.00 | 0.00 | 0.00 | 60 | 1020.7 |
| 20260906154336 | 23 | 32 | 0.0 | 1.6 | 0.00 | 0.00 | 0.00 | 62 | 1020.7 |
| 20260906153835 | 23 | 345 | 0.0 | 0.0 | 0.00 | 0.00 | 0.00 | 61 | 1020.8 |
| 20260906153334 | 22 | 280 | 0.0 | 0.0 | 0.00 | 0.00 | 0.00 | 64 | 1020.8 |
| 20260906152834 | 22 | 288 | 0.0 | 1.6 | 0.00 | 0.00 | 0.00 | 63 | 1020.9 |
| 20260906152333 | 22 | 276 | 0.0 | 1.6 | 0.00 | 0.00 | 0.00 | 64 | 1020.9 |
| 20260906151832 | 22 | 2 | 0.0 | 0.0 | 0.00 | 0.00 | 0.00 | 63 | 1020.9 |
| 20260906151331 | 22 | 77 | 0.0 | 0.0 | 0.00 | 0.00 | 0.00 | 64 | 1020.9 |
| 20260906150830 | 22 | 22 | 0.0 | 1.6 | 0.00 | 0.00 | 0.00 | 65 | 1020.9 |
| 20260906150330 | 22 | 33 | 1.6 | 1.6 | 0.00 | 0.00 | 0.00 | 65 | 1021.0 |
| 20260906145829 | 22 | 0 | 0.0 | 1.6 | 0.00 | 0.00 | 0.00 | 65 | 1020.9 |
| 20260906145328 | 21 | 87 | 0.0 | 0.0 | 0.00 | 0.00 | 0.00 | 68 | 1020.9 |
| 20260906144828 | 21 | 301 | 0.0 | 0.0 | 0.00 | 0.00 | 0.00 | 67 | 1020.8 |
| 20260906144328 | 21 | 304 | 0.0 | 0.0 | 0.00 | 0.00 | 0.00 | 68 | 1020.8 |
| 20260906143826 | 21 | 44 | 0.0 | 0.0 | 0.00 | 0.00 | 0.00 | 69 | 1020.9 |
| 20260906143325 | 21 | 307 | 0.0 | 1.6 | 0.00 | 0.00 | 0.00 | 70 | 1020.8 |
| 20260906142824 | 21 | 276 | 0.0 | 1.6 | 0.00 | 0.00 | 0.00 | 71 | 1020.9 |
| 20260906142324 | 20 | 306 | 0.0 | 1.6 | 0.00 | 0.00 | 0.00 | 71 | 1020.8 |
| 20260906141823 | 20 | 275 | 0.0 | 0.0 | 0.00 | 0.00 | 0.00 | 73 | 1020.9 |
| 20260906141323 | 20 | 274 | 0.0 | 1.6 | 0.00 | 0.00 | 0.00 | 74 | 1020.9 |
| 20260906140822 | 20 | 289 | 0.0 | 1.6 | 0.00 | 0.00 | 0.00 | 74 | 1020.8 |
| 20260906140321 | 19 | 293 | 0.0 | 0.0 | 0.00 | 0.00 | 0.00 | 76 | 1020.8 |
| 20260906135820 | 19 | 269 | 0.0 | 1.6 | 0.00 | 0.00 | 0.00 | 77 | 1020.9 |
| 20260906135319 | 19 | 281 | 0.0 | 1.6 | 0.00 | 0.00 | 0.00 | 78 | 1020.8 |
| 20260906134819 | 18 | 298 | 0.0 | 0.0 | 0.00 | 0.00 | 0.00 | 78 | 1020.8 |
| 20260906134318 | 18 | 252 | 0.0 | 0.0 | 0.00 | 0.00 | 0.00 | 80 | 1020.8 |
| 20260906133818 | 17 | 292 | 0.0 | 0.0 | 0.00 | 0.00 | 0.00 | 82 | 1020.8 |
| 20260906133317 | 17 | 252 | 0.0 | 1.6 | 0.00 | 0.00 | 0.00 | 84 | 1020.8 |
| 20260906132816 | 17 | 260 | 0.0 | 1.6 | 0.00 | 0.00 | 0.00 | 86 | 1020.8 |
| 20260906132316 | 17 | 253 | 0.0 | 1.6 | 0.00 | 0.00 | 0.00 | 86 | 1020.7 |
| 20260906131814 | 16 | 222 | 0.0 | 0.0 | 0.00 | 0.00 | 0.00 | 88 | 1020.5 |
| 20260906131313 | 16 | 258 | 0.0 | 0.0 | 0.00 | 0.00 | 0.00 | 90 | 1020.5 |
| 20260906130813 | 15 | 268 | 0.0 | 0.0 | 0.00 | 0.00 | 0.00 | 91 | 1020.5 |
| 20260906130312 | 15 | 234 | 1.6 | 1.6 | 0.00 | 0.00 | 0.00 | 91 | 1020.5 |
| 20260906125811 | 15 | 237 | 0.0 | 1.6 | 0.00 | 0.00 | 0.00 | 92 | 1020.5 |
| 20260906125311 | 15 | 224 | 0.0 | 1.6 | 0.00 | 0.00 | 0.00 | 92 | 1020.5 |
| 20260906124810 | 15 | 261 | 0.0 | 1.6 | 0.00 | 0.00 | 0.00 | 92 | 1020.4 |
| 20260906124309 | 15 | 247 | 0.0 | 0.0 | 0.00 | 0.00 | 0.00 | 92 | 1020.3 |
| 20260906123809 | 15 | 220 | 0.0 | 0.0 | 0.00 | 0.00 | 0.00 | 92 | 1020.3 |
| 20260906123308 | 15 | 246 | 0.0 | 0.0 | 0.00 | 0.00 | 0.00 | 92 | 1020.4 |
| 20260906122807 | 15 | 241 | 0.0 | 1.6 | 0.00 | 0.00 | 0.00 | 91 | 1020.5 |
| 20260906122307 | 15 | 264 | 0.0 | 0.0 | 0.00 | 0.00 | 0.00 | 91 | 1020.5 |
| 20260906121806 | 15 | 234 | 0.0 | 0.0 | 0.00 | 0.00 | 0.00 | 90 | 1020.5 |
| 20260906121305 | 15 | 237 | 0.0 | 0.0 | 0.00 | 0.00 | 0.00 | 89 | 1020.7 |
| 20260906120804 | 15 | 266 | 0.0 | 0.0 | 0.00 | 0.00 | 0.00 | 89 | 1020.7 |
| 20260906120304 | 15 | 248 | 0.0 | 1.6 | 0.00 | 0.00 | 0.00 | 89 | 1020.4 |
| 20260906115803 | 15 | 254 | 0.0 | 0.0 | 0.00 | 0.00 | 0.00 | 89 | 1020.4 |
| 20260906115306 | 15 | 290 | 0.0 | 0.0 | 0.00 | 0.00 | 0.00 | 88 | 1020.5 |
| 20260906114802 | 15 | 233 | 0.0 | 0.0 | 0.00 | 0.00 | 0.00 | 88 | 1020.7 |
| 20260906114301 | 16 | 262 | 0.0 | 0.0 | 0.00 | 0.00 | 0.00 | 87 | 1020.5 |
| 20260906113800 | 16 | 353 | 0.0 | 0.0 | 0.00 | 0.00 | 0.00 | 87 | 1020.5 |
| 20260906113300 | 16 | 245 | 0.0 | 1.6 | 0.00 | 0.00 | 0.00 | 87 | 1020.4 |
| 20260906112759 | 16 | 70 | 0.0 | 0.0 | 0.00 | 0.00 | 0.00 | 88 | 1020.4 |
| 20260906112258 | 16 | 287 | 0.0 | 0.0 | 0.00 | 0.00 | 0.00 | 86 | 1020.4 |
| 20260906111758 | 16 | 279 | 0.0 | 0.0 | 0.00 | 0.00 | 0.00 | 85 | 1020.5 |
| 20260906111257 | 16 | 244 | 0.0 | 0.0 | 0.00 | 0.00 | 0.00 | 84 | 1020.5 |
| 20260906110756 | 16 | 257 | 0.0 | 0.0 | 0.00 | 0.00 | 0.00 | 83 | 1020.3 |
| 20260906110255 | 17 | 46 | 0.0 | 1.6 | 0.00 | 0.00 | 0.00 | 82 | 1020.2 |
| 20260906105755 | 17 | 304 | 0.0 | 0.0 | 0.00 | 0.00 | 0.00 | 81 | 1020.3 |
| 20260906105254 | 17 | 43 | 0.0 | 1.6 | 0.00 | 0.00 | 0.00 | 81 | 1020.2 |
| 20260906104753 | 17 | 27 | 1.6 | 3.2 | 0.00 | 0.00 | 0.00 | 80 | 1020.2 |
| 20260906104253 | 17 | 35 | 1.6 | 1.6 | 0.00 | 0.00 | 0.00 | 80 | 1020.2 |
| 20260906103752 | 17 | 47 | 1.6 | 1.6 | 0.00 | 0.00 | 0.00 | 79 | 1020.2 |
| 20260906103251 | 17 | 192 | 0.0 | 0.0 | 0.00 | 0.00 | 0.00 | 79 | 1020.1 |
| 20260906102751 | 17 | 50 | 0.0 | 1.6 | 0.00 | 0.00 | 0.00 | 78 | 1020.1 |
| 20260906102249 | 17 | 112 | 0.0 | 1.6 | 0.00 | 0.00 | 0.00 | 78 | 832.7 |
| 20260906101748 | 17 | 250 | 0.0 | 1.6 | 0.00 | 0.00 | 0.00 | 79 | 1019.9 |
| 20260906101247 | 17 | 318 | 0.0 | 0.0 | 0.00 | 0.00 | 0.00 | 77 | 1019.8 |
| 20260906100747 | 17 | 334 | 0.0 | 0.0 | 0.00 | 0.00 | 0.00 | 76 | 1019.8 |
| 20260906100246 | 17 | 0 | 0.0 | 0.0 | 0.00 | 0.00 | 0.00 | 76 | 1019.9 |
| 20260906095745 | 18 | 262 | 0.0 | 0.0 | 0.00 | 0.00 | 0.00 | 75 | 1019.8 |
| 20260906095245 | 18 | 355 | 0.0 | 0.0 | 0.00 | 0.00 | 0.00 | 74 | 1019.9 |
| 20260906094744 | 18 | 22 | 0.0 | 1.6 | 0.00 | 0.00 | 0.00 | 73 | 1019.9 |
| 20260906094243 | 18 | 25 | 1.6 | 1.6 | 0.00 | 0.00 | 0.00 | 73 | 1020.1 |
| 20260906093743 | 18 | 312 | 0.0 | 0.0 | 0.00 | 0.00 | 0.00 | 73 | 1020.2 |
| 20260906093242 | 18 | 27 | 0.0 | 1.6 | 0.00 | 0.00 | 0.00 | 72 | 1020.2 |
| 20260906092741 | 17 | 35 | 0.0 | 1.6 | 0.00 | 0.00 | 0.00 | 73 | 1020.2 |
| 20260906092241 | 17 | 273 | 0.0 | 0.0 | 0.00 | 0.00 | 0.00 | 73 | 1020.1 |
| 20260906091740 | 18 | 247 | 0.0 | 0.0 | 0.00 | 0.00 | 0.00 | 73 | 1019.9 |
| 20260906091239 | 18 | 232 | 0.0 | 1.6 | 0.00 | 0.00 | 0.00 | 72 | 1019.8 |
| 20260906090738 | 19 | 280 | 0.0 | 0.0 | 0.00 | 0.00 | 0.00 | 68 | 1019.7 |
| 20260906090238 | 19 | 243 | 0.0 | 0.0 | 0.00 | 0.00 | 0.00 | 66 | 1019.8 |
| 20260906085737 | 19 | 77 | 0.0 | 0.0 | 0.00 | 0.00 | 0.00 | 66 | 1019.8 |
| 20260906085236 | 19 | 83 | 0.0 | 0.0 | 0.00 | 0.00 | 0.00 | 66 | 1019.8 |
| 20260906084736 | 20 | 114 | 0.0 | 0.0 | 0.00 | 0.00 | 0.00 | 65 | 1019.7 |
| 20260906084235 | 20 | 103 | 0.0 | 0.0 | 0.00 | 0.00 | 0.00 | 63 | 1019.8 |
| 20260906083734 | 20 | 309 | 0.0 | 0.0 | 0.00 | 0.00 | 0.00 | 63 | 1019.8 |
| 20260906083233 | 20 | 262 | 0.0 | 0.0 | 0.00 | 0.00 | 0.00 | 62 | 1019.7 |
| 20260906082733 | 20 | 76 | 1.6 | 1.6 | 0.00 | 0.00 | 0.00 | 62 | 1019.8 |
| 20260906082232 | 20 | 140 | 0.0 | 1.6 | 0.00 | 0.00 | 0.00 | 60 | 1019.8 |
| 20260906081731 | 20 | 210 | 0.0 | 1.6 | 0.00 | 0.00 | 0.00 | 59 | 1019.8 |
| 20260906081230 | 20 | 107 | 0.0 | 1.6 | 0.00 | 0.00 | 0.00 | 59 | 1019.8 |
| 20260906080730 | 21 | 246 | 0.0 | 0.0 | 0.00 | 0.00 | 0.00 | 58 | 1019.8 |
| 20260906080229 | 21 | 51 | 1.6 | 1.6 | 0.00 | 0.00 | 0.00 | 57 | 1019.8 |
| 20260906075728 | 21 | 59 | 1.6 | 3.2 | 0.00 | 0.00 | 0.00 | 55 | 1019.8 |
| 20260906075228 | 21 | 72 | 1.6 | 1.6 | 0.00 | 0.00 | 0.00 | 53 | 1019.8 |
| 20260906074727 | 21 | 37 | 1.6 | 1.6 | 0.00 | 0.00 | 0.00 | 53 | 1019.8 |
| 20260906074226 | 21 | 28 | 1.6 | 1.6 | 0.00 | 0.00 | 0.00 | 51 | 1019.6 |
| 20260906073725 | 21 | 34 | 1.6 | 3.2 | 0.00 | 0.00 | 0.00 | 50 | 1019.5 |
| 20260906073225 | 21 | 35 | 0.0 | 1.6 | 0.00 | 0.00 | 0.00 | 49 | 1019.5 |
| 20260906072724 | 21 | 38 | 0.0 | 1.6 | 0.00 | 0.00 | 0.00 | 48 | 1019.5 |
| 20260906072223 | 22 | 31 | 1.6 | 1.6 | 0.00 | 0.00 | 0.00 | 47 | 1019.4 |
| 20260906071723 | 22 | 42 | 1.6 | 1.6 | 0.00 | 0.00 | 0.00 | 46 | 1019.4 |
| 20260906071222 | 22 | 39 | 1.6 | 3.2 | 0.00 | 0.00 | 0.00 | 45 | 1019.4 |
| 20260906070722 | 22 | 40 | 1.6 | 1.6 | 0.00 | 0.00 | 0.00 | 44 | 1019.4 |
| 20260906070221 | 22 | 39 | 1.6 | 1.6 | 0.00 | 0.00 | 0.00 | 44 | 1019.2 |
| 20260906065720 | 22 | 37 | 1.6 | 1.6 | 0.00 | 0.00 | 0.00 | 44 | 1019.4 |
| 20260906065219 | 22 | 260 | 0.0 | 0.0 | 0.00 | 0.00 | 0.00 | 44 | 1019.2 |
| 20260906064719 | 22 | 32 | 0.0 | 1.6 | 0.00 | 0.00 | 0.00 | 44 | 1019.1 |
| 20260906064218 | 22 | 305 | 0.0 | 0.0 | 0.00 | 0.00 | 0.00 | 44 | 1019.1 |
| 20260906063717 | 22 | 40 | 0.0 | 1.6 | 0.00 | 0.00 | 0.00 | 44 | 1019.0 |
| 20260906063217 | 21 | 27 | 1.6 | 1.6 | 0.00 | 0.00 | 0.00 | 46 | 1019.1 |
| 20260906062716 | 21 | 41 | 0.0 | 0.0 | 0.00 | 0.00 | 0.00 | 47 | 1019.5 |
| 20260906062215 | 21 | 273 | 0.0 | 0.0 | 0.00 | 0.00 | 0.00 | 47 | 1019.6 |
| 20260906061715 | 22 | 286 | 0.0 | 0.0 | 0.00 | 0.00 | 0.00 | 47 | 1019.6 |
| 20260906061214 | 22 | 244 | 0.0 | 0.0 | 0.00 | 0.00 | 0.00 | 46 | 1019.6 |
| 20260906060713 | 22 | 236 | 0.0 | 0.0 | 0.00 | 0.00 | 0.00 | 45 | 1019.6 |
| 20260906060213 | 22 | 266 | 0.0 | 0.0 | 0.00 | 0.00 | 0.00 | 46 | 1019.7 |
| 20260906055712 | 22 | 243 | 0.0 | 0.0 | 0.00 | 0.00 | 0.00 | 46 | 1019.6 |
| 20260906055211 | 22 | 0 | 0.0 | 0.0 | 0.00 | 0.00 | 0.00 | 45 | 1019.7 |
| 20260906054711 | 22 | 242 | 0.0 | 0.0 | 0.00 | 0.00 | 0.00 | 44 | 1019.7 |
| 20260906054209 | 22 | 36 | 0.0 | 0.0 | 0.00 | 0.00 | 0.00 | 44 | 1019.6 |
| 20260906053708 | 22 | 351 | 0.0 | 0.0 | 0.00 | 0.00 | 0.00 | 45 | 1019.5 |
| 20260906053208 | 22 | 126 | 0.0 | 0.0 | 0.00 | 0.00 | 0.00 | 46 | 1019.6 |
| 20260906052707 | 22 | 284 | 0.0 | 0.0 | 0.00 | 0.00 | 0.00 | 45 | 1019.7 |
| 20260906052206 | 22 | 213 | 0.0 | 0.0 | 0.00 | 0.00 | 0.00 | 45 | 1019.7 |
| 20260906051705 | 22 | 54 | 0.0 | 0.0 | 0.00 | 0.00 | 0.00 | 44 | 1019.7 |
| 20260906051205 | 22 | 341 | 0.0 | 0.0 | 0.00 | 0.00 | 0.00 | 45 | 1019.7 |
| 20260906050704 | 22 | 258 | 0.0 | 0.0 | 0.00 | 0.00 | 0.00 | 45 | 1019.8 |
| 20260906050203 | 22 | 268 | 0.0 | 1.6 | 0.00 | 0.00 | 0.00 | 45 | 1019.8 |
| 20260906045702 | 22 | 261 | 0.0 | 1.6 | 0.00 | 0.00 | 0.00 | 44 | 1019.8 |
| 20260906045202 | 23 | 245 | 0.0 | 0.0 | 0.00 | 0.00 | 0.00 | 44 | 1019.8 |
| 20260906044701 | 23 | 240 | 0.0 | 0.0 | 0.00 | 0.00 | 0.00 | 44 | 1019.9 |
| 20260906044200 | 22 | 152 | 1.6 | 1.6 | 0.00 | 0.00 | 0.00 | 44 | 1020.2 |
| 20260906043700 | 22 | 248 | 1.6 | 1.6 | 0.00 | 0.00 | 0.00 | 46 | 1020.1 |
| 20260906043159 | 23 | 251 | 1.6 | 1.6 | 0.00 | 0.00 | 0.00 | 45 | 1019.9 |
| 20260906042658 | 23 | 36 | 0.0 | 1.6 | 0.00 | 0.00 | 0.00 | 42 | 1019.8 |
| 20260906042158 | 23 | 23 | 0.0 | 1.6 | 0.00 | 0.00 | 0.00 | 41 | 1019.8 |
| 20260906041657 | 23 | 226 | 1.6 | 1.6 | 0.00 | 0.00 | 0.00 | 41 | 1019.9 |
| 20260906041156 | 24 | 160 | 1.6 | 1.6 | 0.00 | 0.00 | 0.00 | 38 | 1019.8 |
| 20260906040656 | 24 | 67 | 1.6 | 1.6 | 0.00 | 0.00 | 0.00 | 36 | 1019.4 |
| 20260906040155 | 23 | 56 | 0.0 | 1.6 | 0.00 | 0.00 | 0.00 | 37 | 1019.1 |
| 20260906035654 | 23 | 34 | 0.0 | 1.6 | 0.00 | 0.00 | 0.00 | 38 | 1019.1 |
| 20260906035154 | 24 | 25 | 0.0 | 1.6 | 0.00 | 0.00 | 0.00 | 37 | 1019.1 |
| 20260906034653 | 24 | 34 | 1.6 | 3.2 | 0.00 | 0.00 | 0.00 | 36 | 1019.1 |
| 20260906034152 | 24 | 111 | 0.0 | 1.6 | 0.00 | 0.00 | 0.00 | 37 | 1019.2 |
| 20260906033652 | 24 | 9 | 0.0 | 1.6 | 0.00 | 0.00 | 0.00 | 36 | 1019.2 |
| 20260906033151 | 25 | 69 | 0.0 | 0.0 | 0.00 | 0.00 | 0.00 | 35 | 1019.1 |
| 20260906032650 | 25 | 12 | 0.0 | 1.6 | 0.00 | 0.00 | 0.00 | 34 | 1019.0 |
| 20260906032150 | 25 | 66 | 0.0 | 1.6 | 0.00 | 0.00 | 0.00 | 34 | 1019.0 |
| 20260906031649 | 25 | 31 | 0.0 | 0.0 | 0.00 | 0.00 | 0.00 | 33 | 1018.9 |
| 20260906031148 | 25 | 63 | 0.0 | 1.6 | 0.00 | 0.00 | 0.00 | 33 | 1018.8 |
| 20260906030648 | 26 | 72 | 1.6 | 1.6 | 0.00 | 0.00 | 0.00 | 33 | 1018.8 |
| 20260906030147 | 26 | 54 | 1.6 | 1.6 | 0.00 | 0.00 | 0.00 | 32 | 1018.6 |
| 20260906025646 | 26 | 43 | 1.6 | 1.6 | 0.00 | 0.00 | 0.00 | 32 | 1018.6 |
| 20260906025146 | 26 | 36 | 1.6 | 1.6 | 0.00 | 0.00 | 0.00 | 32 | 1018.5 |
| 20260906024645 | 26 | 30 | 1.6 | 1.6 | 0.00 | 0.00 | 0.00 | 32 | 1018.5 |
| 20260906024144 | 26 | 26 | 1.6 | 1.6 | 0.00 | 0.00 | 0.00 | 33 | 1018.5 |
| 20260906023644 | 26 | 57 | 0.0 | 1.6 | 0.00 | 0.00 | 0.00 | 32 | 1018.5 |
| 20260906023143 | 26 | 44 | 0.0 | 1.6 | 0.00 | 0.00 | 0.00 | 32 | 1018.4 |
| 20260906022642 | 26 | 38 | 0.0 | 1.6 | 0.00 | 0.00 | 0.00 | 32 | 1018.4 |
| 20260906022142 | 27 | 35 | 0.0 | 1.6 | 0.00 | 0.00 | 0.00 | 31 | 1018.4 |
| 20260906021641 | 27 | 15 | 1.6 | 1.6 | 0.00 | 0.00 | 0.00 | 30 | 1018.3 |
| 20260906021140 | 27 | 26 | 1.6 | 1.6 | 0.00 | 0.00 | 0.00 | 29 | 1018.2 |
| 20260906020640 | 27 | 27 | 1.6 | 3.2 | 0.00 | 0.00 | 0.00 | 29 | 1018.1 |
| 20260906020139 | 27 | 31 | 1.6 | 3.2 | 0.00 | 0.00 | 0.00 | 28 | 1017.9 |
| 20260906015638 | 27 | 32 | 1.6 | 3.2 | 0.00 | 0.00 | 0.00 | 28 | 1017.8 |
| 20260906015138 | 28 | 36 | 1.6 | 3.2 | 0.00 | 0.00 | 0.00 | 28 | 1017.7 |
| 20260906014637 | 28 | 39 | 1.6 | 1.6 | 0.00 | 0.00 | 0.00 | 28 | 1017.7 |
| 20260906014136 | 28 | 8 | 0.0 | 1.6 | 0.00 | 0.00 | 0.00 | 28 | 1017.6 |
| 20260906013636 | 28 | 30 | 0.0 | 1.6 | 0.00 | 0.00 | 0.00 | 28 | 1017.6 |
| 20260906013133 | 28 | 37 | 0.0 | 1.6 | 0.00 | 0.00 | 0.00 | 27 | 1017.5 |
| 20260906012633 | 28 | 41 | 1.6 | 3.2 | 0.00 | 0.00 | 0.00 | 26 | 1017.5 |
| 20260906012132 | 28 | 44 | 1.6 | 1.6 | 0.00 | 0.00 | 0.00 | 26 | 1017.5 |
| 20260906011631 | 28 | 55 | 0.0 | 0.0 | 0.00 | 0.00 | 0.00 | 27 | 1017.5 |
| 20260906011130 | 28 | 70 | 0.0 | 0.0 | 0.00 | 0.00 | 0.00 | 27 | 1017.4 |
| 20260906010629 | 29 | 118 | 0.0 | 1.6 | 0.00 | 0.00 | 0.00 | 29 | 1017.4 |
| 20260906010129 | 29 | 114 | 0.0 | 1.6 | 0.00 | 0.00 | 0.00 | 29 | 1017.4 |
| 20260906005628 | 30 | 0 | 0.0 | 0.0 | 0.00 | 0.00 | 0.00 | 26 | 1017.4 |
| 20260906005127 | 30 | 194 | 0.0 | 0.0 | 0.00 | 0.00 | 0.00 | 26 | 1017.4 |
| 20260906004627 | 30 | 0 | 0.0 | 0.0 | 0.00 | 0.00 | 0.00 | 25 | 1017.4 |
| 20260906004126 | 30 | 75 | 0.0 | 0.0 | 0.00 | 0.00 | 0.00 | 25 | 1017.4 |
| 20260906003625 | 30 | 0 | 0.0 | 0.0 | 0.00 | 0.00 | 0.00 | 25 | 1017.4 |
| 20260906003124 | 31 | 48 | 0.0 | 1.6 | 0.00 | 0.00 | 0.00 | 25 | 1017.4 |
| 20260906002624 | 31 | 116 | 0.0 | 0.0 | 0.00 | 0.00 | 0.00 | 25 | 1017.2 |
| 20260906002123 | 31 | 66 | 0.0 | 1.6 | 0.00 | 0.00 | 0.00 | 25 | 1017.2 |
| 20260906001622 | 31 | 46 | 1.6 | 1.6 | 0.00 | 0.00 | 0.00 | 23 | 1017.2 |
| 20260906001121 | 31 | 58 | 1.6 | 3.2 | 0.00 | 0.00 | 0.00 | 23 | 1017.1 |
| 20260906000621 | 32 | 6 | 0.0 | 0.0 | 0.00 | 0.00 | 0.00 | 24 | 1017.1 |
| 20260906000120 | 32 | 45 | 0.0 | 1.6 | 0.00 | 0.00 | 0.00 | 23 | 1017.1 |
| 20260905235619 | 32 | 43 | 1.6 | 1.6 | 0.00 | 0.00 | 0.00 | 21 | 1017.0 |
| 20260905235119 | 32 | 128 | 0.0 | 0.0 | 0.00 | 0.00 | 0.00 | 23 | 1017.0 |
| 20260905234618 | 32 | 37 | 1.6 | 1.6 | 0.00 | 0.00 | 0.00 | 22 | 1017.0 |
| 20260905234117 | 32 | 42 | 0.0 | 1.6 | 0.00 | 0.00 | 0.00 | 24 | 1017.0 |
| 20260905233616 | 32 | 0 | 0.0 | 0.0 | 0.00 | 0.00 | 0.00 | 24 | 1017.0 |
| 20260905233116 | 32 | 197 | 0.0 | 0.0 | 0.00 | 0.00 | 0.00 | 24 | 1017.0 |
| 20260905232615 | 32 | 229 | 0.0 | 1.6 | 0.00 | 0.00 | 0.00 | 22 | 1017.0 |
| 20260905232114 | 32 | 148 | 0.0 | 1.6 | 0.00 | 0.00 | 0.00 | 22 | 1016.9 |
| 20260905231613 | 32 | 194 | 0.0 | 1.6 | 0.00 | 0.00 | 0.00 | 22 | 1016.9 |
| 20260905231113 | 32 | 31 | 1.6 | 3.2 | 0.00 | 0.00 | 0.00 | 21 | 1017.0 |
| 20260905230612 | 32 | 39 | 1.6 | 1.6 | 0.00 | 0.00 | 0.00 | 22 | 1017.0 |
| 20260905230111 | 32 | 64 | 1.6 | 1.6 | 0.00 | 0.00 | 0.00 | 22 | 1017.0 |
| 20260905225610 | 32 | 34 | 1.6 | 3.2 | 0.00 | 0.00 | 0.00 | 22 | 1017.0 |
| 20260905225110 | 32 | 53 | 1.6 | 1.6 | 0.00 | 0.00 | 0.00 | 23 | 1016.9 |
| 20260905224609 | 32 | 57 | 1.6 | 1.6 | 0.00 | 0.00 | 0.00 | 23 | 1016.9 |
| 20260905224108 | 32 | 164 | 0.0 | 1.6 | 0.00 | 0.00 | 0.00 | 23 | 1016.9 |
| 20260905223608 | 32 | 29 | 1.6 | 3.2 | 0.00 | 0.00 | 0.00 | 23 | 1016.9 |
| 20260905223107 | 32 | 45 | 1.6 | 3.2 | 0.00 | 0.00 | 0.00 | 22 | 1016.9 |
| 20260905222606 | 32 | 63 | 1.6 | 3.2 | 0.00 | 0.00 | 0.00 | 23 | 1016.9 |
| 20260905222105 | 32 | 68 | 0.0 | 1.6 | 0.00 | 0.00 | 0.00 | 25 | 1017.0 |
| 20260905221605 | 32 | 36 | 1.6 | 3.2 | 0.00 | 0.00 | 0.00 | 23 | 1017.0 |
| 20260905221104 | 32 | 44 | 1.6 | 3.2 | 0.00 | 0.00 | 0.00 | 23 | 1017.0 |
| 20260905220603 | 32 | 100 | 0.0 | 1.6 | 0.00 | 0.00 | 0.00 | 23 | 1017.1 |
| 20260905215601 | 32 | 53 | 1.6 | 3.2 | 0.00 | 0.00 | 0.00 | 22 | 1017.2 |
| 20260905215100 | 32 | 140 | 1.6 | 3.2 | 0.00 | 0.00 | 0.00 | 21 | 830.5 |